Home   Weather   Santa Fe   Past weeks
Flag for Argentina

Past Weather in Santa Fe, Santa Fe, Argentina — Yesterday and Last 2 Weeks

Now
49 °F

Fog.


Feels Like: 49 °F
Forecast: 77 / 52 °F
Wind: No wind

Location: Sauce Viejo Aerodrome

Current Time: Oct 23, 2019 at 8:17:42 am

Latest Report: Oct 23, 2019 at 7:00 am


Visibility: 0 mi

Pressure: 30.06 "Hg

Humidity: 96%

Dew Point: 48 °F

Location of Santa FeLocation

Past Weather in Santa Fe — Graph

°F

Santa Fe Temperature Yesterday

Maximum temperature yesterday: 69 °F (at 4:00 pm)
Minimum temperature yesterday: 50 °F (at 5:00 am)
Average temperature yesterday: 59 °F

High & Low Weather Summary for the Past Weeks

 TemperatureHumidityPressure
High98 °F (Oct 11, 3:00 pm)98% (Oct 17, 6:00 am)30.36 "Hg (Oct 17, 6:00 am)
Low47 °F (Oct 15, 6:00 am)35% (Oct 11, 3:00 pm)29.44 "Hg (Oct 12, 5:00 pm)
Average66 °F76%30.00 "Hg
* Reported Oct 8 6:00 am — Oct 23 6:00 am, Santa Fe. Weather by CustomWeather, © 2019

Note: Actual official high and low records may vary slightly from our data, if they occured in-between our weather recording intervals... More about our weather records

Advertising

Santa Fe Weather History for the Previous 24 Hours

Scroll right to see more
 ConditionsComfort  
Time TempWeatherWind HumidityBarometerVisibility
6:00 am
Wed, Oct 23
51 °FFog.No wind97%30.04 "Hg0 mi
5:00 am53 °FFog.2 mph96%30.03 "Hg1 mi
4:00 am52 °FFog.2 mph96%30.02 "Hg2 mi
3:00 am52 °FFog.No wind96%30.02 "Hg1 mi
2:00 am54 °FPassing clouds.2 mph96%30.04 "Hg7 mi
12:00 am57 °FPassing clouds.No wind89%30.05 "Hg7 mi
11:00 pm
Tue, Oct 22
56 °FPassing clouds.2 mph89%30.04 "Hg7 mi
10:00 pm57 °FClear.2 mph87%30.03 "Hg7 mi
9:00 pm61 °FPassing clouds.5 mph79%30.01 "Hg7 mi
8:00 pm61 °FPassing clouds.6 mph74%29.99 "Hg7 mi
7:00 pm65 °FPartly sunny.5 mph65%30.00 "Hg7 mi
6:00 pm67 °FPartly sunny.10 mph61%29.99 "Hg7 mi
5:00 pm67 °FPartly sunny.12 mph61%30.00 "Hg7 mi
4:00 pm69 °FPartly sunny.10 mph65%30.03 "Hg7 mi
3:00 pm65 °FOvercast.13 mph67%30.07 "Hg7 mi
2:00 pm65 °FOvercast.15 mph74%30.08 "Hg7 mi
12:00 pm64 °FOvercast.15 mph77%30.12 "Hg7 mi
11:00 am62 °FOvercast.10 mph82%30.13 "Hg7 mi
10:00 am63 °FOvercast.5 mph76%30.11 "Hg7 mi
9:00 am59 °FOvercast.7 mph85%30.12 "Hg7 mi
8:00 am57 °FOvercast.6 mph91%30.09 "Hg7 mi
Weather by CustomWeather, © 2019

See weather overview